User: anonymous   Login
Location: Woodstock
(35.2731°N, 89.9823°W)
Time: 06:43:54
(UTC+00:00)
Language:

BEESAT - Orbit

View from above orbital plane
View from above orbital plane
View from above satellite
View from above satellite

Ground track
Ground track

The orbit data is extracted from the following two-line orbital elements,

1 35933U 09051C   25018.65110739  .00002263  00000-0  48013-3 0  9998
2 35933  98.4394 272.7588 0006235  34.7437 325.4169 14.60143862814058
Epoch (UTC): 18 January 2025 15:37:35
Eccentricity: 0.0006235
inclination: 98.4394°
perigee height: 688 km
apogee height: 697 km
right ascension of ascending node: 272.7588°
argument of perigee: 34.7437°
revolutions per day: 14.60143862
mean anomaly at epoch: 325.4169°
orbit number at epoch: 81405

The dashed part of the orbit path shows where the satellite is in the earth's shadow,  

DLR